Regional Weather Roundup
Issued by NWS Northern Indiana

Home | Current Version | Previous Version | Text Only | Print | Product List | Glossary Off
Versions: 1 2 3 4 5 6 7 8 9 10 11 12 13 14 15 16 17 18 19 20 21 22 23 24 25 26 27 28 29 30 31 32 33 34 35 36 37 38 39 40 41 42 43 44 45 46 47 48 49 50

000
ASUS43 KIWX 190101
RWRIWX

KIWX WEATHER ROUNDUP
NATIONAL WEATHER SERVICE NORTHERN INDIANA
900 PM EDT FRI AUG 18 2017

NOTE: "FAIR" INDICATES FEW OR NO CLOUDS BELOW 12,000 FEET WITH NO
SIGNIFICANT WEATHER AND/OR OBSTRUCTIONS TO VISIBILITY.

* THESE STATIONS ARE NOT UNDER NWS QUALITY CONTROL. THEY ALSO MAY NOT
  REPORT WEATHER SUCH AS PRECIPITATION OR FOG.

INZ001>027-190200-
NORTHERN INDIANA

CITY           SKY/WX    TMP DP  RH WIND       PRES   REMARKS
MICHIGAN CITY* CLEAR     68  63  83 CALM      29.87R
SOUTH BEND     PTCLDY    70  64  81 N5        29.87R
ELKHART*       CLEAR     75  61  60 N6        29.86S
GOSHEN         CLEAR     72  62  71 SW6       29.87R
MONTICELLO*    PTCLDY    71  64  77 CALM      29.87S
FORT WAYNE     PTCLDY    71  63  75 SW7       29.88S
PERU/GRISSOM   PTCLDY    69  65  86 SW6       29.87S

$$
INZ028>050-190200-
CENTRAL INDIANA

CITY           SKY/WX    TMP DP  RH WIND       PRES   REMARKS
LAFAYETTE      PTCLDY    74  65  73 SW5       29.88R
KOKOMO*        CLEAR     73  65  75 SW3       29.89F
MUNCIE*        CLEAR     74  63  68 W5        29.90S
INDIANAPOLIS   PTCLDY    75  62  64 SW7       29.89F

$$
MIZ043>046-050>051-056>058-064>065-071>073-077>080-190200-
SOUTHWEST LOWER MICHIGAN

CITY           SKY/WX    TMP DP  RH WIND       PRES   REMARKS
BATTLE CREEK   CLEAR     67  60  78 W5        29.88S
BENTON HARBOR  CLEAR     67  61  81 CALM      29.86S
COLDWATER*     CLEAR     69  61  76 CALM      29.88R
HILLSDALE*     CLOUDY    64  59  82 NW3       29.88S
HOLLAND        CLEAR     65  61  87 CALM      29.86S
GRAND RAPIDS   MOCLDY    68  61  78 SW6       29.86R
KALAMAZOO      CLEAR     69  58  67 NW3       29.87S
STURGIS*       CLEAR     67  63  88 CALM      29.87R
THREE RIVERS*  FAIR      71  61  71 N3        29.87S

$$
OHZ001>008-015>018-024>025-190200-
NORTHWEST OHIO

CITY           SKY/WX    TMP DP  RH WIND       PRES   REMARKS
DEFIANCE       CLEAR     72  62  71 CALM      29.86S
FINDLAY        PTCLDY    73  62  68 SW5       29.86R
TOLEDO EXPRESS PTCLDY    72  64  76 W5        29.85R
TOLEDO METCALF CLEAR     72  63  73 W5        29.86R
LIMA           CLEAR     72  64  76 W7        29.89R

$$
AND FOR LAKE MICHIGAN COASTAL AND OPEN LAKE BUOY OBSERVATIONS

STATION/POSITION TEMP    WIND        PRES    VSBY  WAVE
                 AIR SEA DIR/SP/G                  HT/PER
                 (F)     (DEG/KT/KT) (MB)    (MI)  (FT/S)
CALUMET HARBOR    79     240/  6/ 11 1010.5R
MICHIGAN CITY     72      50/  6/  7   N/A
BURNS HARBOR      74      40/  7/  9 1011.5R
SAINT JOSEPH      75      30/  1/  2 1011.5
SOUTH LAKE BUOY   70 71   90/  4/  4 1010.6          2/ 4
4 MI NW BRIDGMAN  72 74   60/  2/  4 1010.8F         2/ 6
MICHIGAN CITY     73 75   80/  4/  6   N/A           2/ 5

$$
&&



USA.gov is the U.S. government's official web portal to all federal, state and local government web resources and services.